GLO7223 SULS-SABE

Flight info

Callsign GLO7223
Flight time 0h 39m
Altitude 24000
Route DCT LDS UL405 UGIMI
Aircraft B738/M-SDFGIKLORWXY/LB1

Departure

Time 2026-05-03 23:06
Airport Capitan Corbeta CA Curbelo International Airport (SULS)

Arrival

Time 2026-05-03 23:45
Airport Aeroparque Jorge Newbery (SABE)
Time Latitude Longitude Altitude Speed Heading
2026-05-03 22:46 -34.85944 -55.09872 95 ft 0 kts 162°
2026-05-03 23:01 -34.85965 -55.09855 95 ft 8 kts 112°
2026-05-03 23:02 -34.85899 -55.09829 94 ft 13 kts 345°
2026-05-03 23:02 -34.85811 -55.09863 91 ft 13 kts 342°
2026-05-03 23:02 -34.85712 -55.09899 88 ft 16 kts 344°
2026-05-03 23:02 -34.85666 -55.10011 87 ft 18 kts 255°
2026-05-03 23:03 -34.85705 -55.10169 88 ft 20 kts 253°
2026-05-03 23:03 -34.85748 -55.10342 89 ft 22 kts 251°
2026-05-03 23:03 -34.85801 -55.10531 90 ft 24 kts 250°
2026-05-03 23:03 -34.85851 -55.10743 92 ft 26 kts 256°
2026-05-03 23:04 -34.85913 -55.10961 95 ft 28 kts 253°
2026-05-03 23:04 -34.85957 -55.11162 97 ft 17 kts 265°
2026-05-03 23:04 -34.85985 -55.11201 97 ft 1 kts 60°
2026-05-03 23:04 -34.85972 -55.11176 97 ft 2 kts 58°
2026-05-03 23:05 -34.85963 -55.11155 97 ft 0 kts 75°
2026-05-03 23:05 -34.85932 -55.11031 95 ft 52 kts 70°
2026-05-03 23:05 -34.85741 -55.10297 89 ft 128 kts 72°
2026-05-03 23:05 -34.85387 -55.09009 100 ft 188 kts 71°
2026-05-03 23:06 -34.85031 -55.07462 895 ft 194 kts 72°
2026-05-03 23:06 -34.84721 -55.05853 1724 ft 208 kts 79°
2026-05-03 23:06 -34.84844 -55.03966 2211 ft 247 kts 107°
2026-05-03 23:06 -34.85773 -55.02095 3002 ft 268 kts 136°
2026-05-03 23:07 -34.87317 -55.00911 4028 ft 275 kts 162°
2026-05-03 23:07 -34.89221 -55.00663 5043 ft 275 kts 191°
2026-05-03 23:07 -34.90957 -55.01446 6085 ft 270 kts 218°
2026-05-03 23:07 -34.92298 -55.02987 7183 ft 265 kts 232°
2026-05-03 23:08 -34.93463 -55.04731 8129 ft 268 kts 235°
2026-05-03 23:08 -34.94610 -55.06530 9076 ft 271 kts 235°
2026-05-03 23:08 -34.95739 -55.08315 10024 ft 271 kts 235°
2026-05-03 23:08 -34.96897 -55.10151 10778 ft 278 kts 235°
2026-05-03 23:09 -34.98102 -55.12074 11305 ft 292 kts 235°
2026-05-03 23:09 -34.99350 -55.14077 11831 ft 306 kts 235°
2026-05-03 23:09 -35.00625 -55.16179 12432 ft 314 kts 239°
2026-05-03 23:09 -35.01419 -55.18641 13132 ft 316 kts 260°
2026-05-03 23:10 -35.01561 -55.21322 13895 ft 319 kts 269°
2026-05-03 23:10 -35.01530 -55.24008 14585 ft 323 kts 269°
2026-05-03 23:10 -35.01550 -55.26749 15319 ft 325 kts 268°
2026-05-03 23:10 -35.01648 -55.29503 16014 ft 328 kts 266°
2026-05-03 23:11 -35.01804 -55.32271 16669 ft 331 kts 265°
2026-05-03 23:11 -35.01991 -55.35056 17345 ft 333 kts 264°
2026-05-03 23:11 -35.02191 -55.37884 17963 ft 336 kts 264°
2026-05-03 23:11 -35.02396 -55.40740 18592 ft 339 kts 264°
2026-05-03 23:12 -35.02596 -55.43585 19178 ft 342 kts 264°
2026-05-03 23:12 -35.02797 -55.46505 19774 ft 344 kts 264°
2026-05-03 23:12 -35.02995 -55.49392 20341 ft 346 kts 264°
2026-05-03 23:12 -35.03193 -55.52305 20901 ft 349 kts 264°
2026-05-03 23:13 -35.03394 -55.55283 21442 ft 351 kts 264°
2026-05-03 23:13 -35.03592 -55.58216 21902 ft 355 kts 264°
2026-05-03 23:13 -35.03794 -55.61238 22423 ft 357 kts 264°
2026-05-03 23:13 -35.03995 -55.64256 22986 ft 357 kts 264°
2026-05-03 23:14 -35.04195 -55.67259 23417 ft 361 kts 264°
2026-05-03 23:14 -35.04397 -55.70303 23952 ft 362 kts 264°
2026-05-03 23:14 -35.04604 -55.73410 24093 ft 367 kts 264°
2026-05-03 23:14 -35.04807 -55.76493 24091 ft 363 kts 264°
2026-05-03 23:15 -35.05006 -55.79532 24094 ft 362 kts 264°
2026-05-03 23:15 -35.05205 -55.82592 24101 ft 364 kts 264°
2026-05-03 23:15 -35.05389 -55.85668 24095 ft 364 kts 265°
2026-05-03 23:15 -35.05426 -55.88745 24094 ft 363 kts 270°
2026-05-03 23:16 -35.05298 -55.91819 24094 ft 364 kts 272°
2026-05-03 23:16 -35.05091 -55.94893 24095 ft 364 kts 273°
2026-05-03 23:16 -35.04859 -55.97982 24098 ft 374 kts 273°
2026-05-03 23:16 -35.04617 -56.01191 24089 ft 389 kts 273°
2026-05-03 23:17 -35.04372 -56.04534 24091 ft 400 kts 273°
2026-05-03 23:17 -35.04127 -56.07933 24089 ft 401 kts 273°
2026-05-03 23:17 -35.03889 -56.11297 24095 ft 400 kts 273°
2026-05-03 23:17 -35.03652 -56.14655 24088 ft 399 kts 273°
2026-05-03 23:18 -35.03413 -56.18036 24092 ft 401 kts 273°
2026-05-03 23:18 -35.03174 -56.21402 24090 ft 401 kts 273°
2026-05-03 23:18 -35.02934 -56.24781 24090 ft 401 kts 273°
2026-05-03 23:18 -35.02694 -56.28162 24089 ft 400 kts 273°
2026-05-03 23:19 -35.02453 -56.31529 24088 ft 401 kts 273°
2026-05-03 23:19 -35.02211 -56.34916 24088 ft 401 kts 273°
2026-05-03 23:19 -35.01966 -56.38326 24087 ft 401 kts 273°
2026-05-03 23:19 -35.01725 -56.41659 24082 ft 399 kts 273°
2026-05-03 23:20 -35.01480 -56.45042 24081 ft 398 kts 273°
2026-05-03 23:20 -35.01237 -56.48390 24083 ft 399 kts 273°
2026-05-03 23:20 -35.00992 -56.51745 24079 ft 398 kts 273°
2026-05-03 23:20 -35.00749 -56.55072 24081 ft 398 kts 273°
2026-05-03 23:21 -35.00500 -56.58467 24083 ft 399 kts 273°
2026-05-03 23:21 -35.00257 -56.61780 24080 ft 398 kts 273°
2026-05-03 23:21 -35.00007 -56.65173 24079 ft 397 kts 274°
2026-05-03 23:21 -34.99761 -56.68502 24075 ft 398 kts 273°
2026-05-03 23:22 -34.99260 -56.75228 24079 ft 399 kts 273°
2026-05-03 23:22 -34.99010 -56.78574 24074 ft 397 kts 274°
2026-05-03 23:22 -34.98759 -56.81906 24077 ft 398 kts 273°
2026-05-03 23:23 -34.98507 -56.85263 24075 ft 398 kts 274°
2026-05-03 23:23 -34.98265 -56.88641 24075 ft 397 kts 272°
2026-05-03 23:23 -34.98138 -56.91990 24074 ft 397 kts 270°
2026-05-03 23:23 -34.98108 -56.95319 24067 ft 396 kts 269°
2026-05-03 23:24 -34.98121 -56.98684 24069 ft 392 kts 269°
2026-05-03 23:24 -34.98141 -57.01886 24063 ft 374 kts 269°
2026-05-03 23:24 -34.98159 -57.04989 24061 ft 357 kts 269°
2026-05-03 23:24 -34.98168 -57.07972 24064 ft 351 kts 268°
2026-05-03 23:25 -34.98172 -57.10949 23907 ft 357 kts 269°
2026-05-03 23:25 -34.98169 -57.13964 23494 ft 356 kts 269°
2026-05-03 23:25 -34.98159 -57.16987 22973 ft 353 kts 269°
2026-05-03 23:25 -34.98146 -57.19953 22421 ft 351 kts 269°
2026-05-03 23:26 -34.98130 -57.22918 21862 ft 350 kts 269°
2026-05-03 23:26 -34.98114 -57.25836 21291 ft 349 kts 269°
2026-05-03 23:26 -34.98096 -57.28804 20719 ft 347 kts 269°
2026-05-03 23:26 -34.98080 -57.31715 20155 ft 346 kts 269°
2026-05-03 23:27 -34.98061 -57.34627 19594 ft 344 kts 269°
2026-05-03 23:27 -34.98042 -57.37509 19035 ft 343 kts 269°
2026-05-03 23:27 -34.98022 -57.40411 18511 ft 340 kts 269°
2026-05-03 23:27 -34.98002 -57.43279 17969 ft 337 kts 269°
2026-05-03 23:28 -34.97983 -57.46106 17431 ft 335 kts 269°
2026-05-03 23:28 -34.97963 -57.48933 16886 ft 334 kts 269°
2026-05-03 23:28 -34.97942 -57.51741 16330 ft 332 kts 269°
2026-05-03 23:28 -34.97920 -57.54505 15783 ft 330 kts 269°
2026-05-03 23:29 -34.97897 -57.57288 15236 ft 328 kts 268°
2026-05-03 23:29 -34.97874 -57.60066 14706 ft 326 kts 268°
2026-05-03 23:29 -34.97850 -57.62809 14161 ft 324 kts 268°
2026-05-03 23:29 -34.97825 -57.65522 13630 ft 322 kts 269°
2026-05-03 23:30 -34.97801 -57.68233 13104 ft 321 kts 269°
2026-05-03 23:30 -34.97777 -57.70940 12561 ft 320 kts 269°
2026-05-03 23:30 -34.97752 -57.73634 12029 ft 318 kts 270°
2026-05-03 23:30 -34.97726 -57.76318 11491 ft 317 kts 270°
2026-05-03 23:31 -34.97700 -57.79010 10956 ft 316 kts 270°
2026-05-03 23:31 -34.97673 -57.81642 10581 ft 309 kts 271°
2026-05-03 23:31 -34.97645 -57.84198 10414 ft 296 kts 271°
2026-05-03 23:31 -34.97612 -57.86639 10299 ft 283 kts 272°
2026-05-03 23:32 -34.97356 -57.88948 10150 ft 271 kts 285°
2026-05-03 23:32 -34.96459 -57.90958 9825 ft 270 kts 310°
2026-05-03 23:32 -34.95033 -57.92422 9455 ft 270 kts 320°
2026-05-03 23:32 -34.93517 -57.93761 9081 ft 268 kts 321°
2026-05-03 23:33 -34.92034 -57.95096 8724 ft 265 kts 320°
2026-05-03 23:33 -34.90578 -57.96445 8381 ft 262 kts 320°
2026-05-03 23:33 -34.89131 -57.97807 8023 ft 260 kts 320°
2026-05-03 23:33 -34.87723 -57.99139 7675 ft 257 kts 320°
2026-05-03 23:34 -34.86318 -58.00469 7320 ft 255 kts 320°
2026-05-03 23:34 -34.84922 -58.01787 6985 ft 252 kts 320°
2026-05-03 23:34 -34.83538 -58.03092 6620 ft 246 kts 320°
2026-05-03 23:34 -34.82228 -58.04326 6332 ft 235 kts 320°
2026-05-03 23:35 -34.80956 -58.05524 6017 ft 226 kts 321°
2026-05-03 23:35 -34.79740 -58.06671 5724 ft 216 kts 321°
2026-05-03 23:35 -34.78577 -58.07766 5455 ft 205 kts 321°
2026-05-03 23:35 -34.77499 -58.08782 5334 ft 186 kts 321°
2026-05-03 23:36 -34.76517 -58.09706 5263 ft 172 kts 321°
2026-05-03 23:36 -34.75528 -58.10639 5231 ft 177 kts 321°
2026-05-03 23:36 -34.74597 -58.11514 5151 ft 166 kts 321°
2026-05-03 23:36 -34.73682 -58.12374 5105 ft 166 kts 321°
2026-05-03 23:37 -34.72766 -58.13235 5045 ft 166 kts 321°
2026-05-03 23:37 -34.71846 -58.14100 4982 ft 165 kts 321°
2026-05-03 23:37 -34.70933 -58.14957 4907 ft 165 kts 321°
2026-05-03 23:37 -34.70106 -58.15922 4794 ft 166 kts 307°
2026-05-03 23:38 -34.69485 -58.17101 4694 ft 165 kts 303°
2026-05-03 23:38 -34.68893 -58.18241 4591 ft 156 kts 305°
2026-05-03 23:38 -34.68306 -58.19310 4536 ft 147 kts 306°
2026-05-03 23:38 -34.67750 -58.20311 4436 ft 136 kts 306°
2026-05-03 23:39 -34.67243 -58.21227 4347 ft 129 kts 307°
2026-05-03 23:39 -34.66739 -58.22132 4267 ft 128 kts 307°
2026-05-03 23:39 -34.66238 -58.23033 4207 ft 134 kts 307°
2026-05-03 23:39 -34.65700 -58.24000 4124 ft 140 kts 307°
2026-05-03 23:40 -34.65154 -58.24984 3790 ft 141 kts 307°
2026-05-03 23:40 -34.64615 -58.25958 3385 ft 134 kts 308°
2026-05-03 23:40 -34.64117 -58.26857 3068 ft 125 kts 309°
2026-05-03 23:40 -34.63629 -58.27734 2790 ft 126 kts 309°
2026-05-03 23:41 -34.63145 -58.28603 2468 ft 126 kts 309°
2026-05-03 23:41 -34.62727 -58.29357 2203 ft 125 kts 310°
2026-05-03 23:41 -34.62185 -58.30331 1856 ft 125 kts 310°
2026-05-03 23:41 -34.61705 -58.31204 1623 ft 124 kts 310°
2026-05-03 23:42 -34.61230 -58.32080 1514 ft 124 kts 309°
2026-05-03 23:42 -34.60735 -58.32969 1466 ft 128 kts 311°
2026-05-03 23:42 -34.60218 -58.33854 1326 ft 130 kts 310°
2026-05-03 23:42 -34.59694 -58.34764 1133 ft 132 kts 309°
2026-05-03 23:43 -34.59184 -58.35675 928 ft 133 kts 307°
2026-05-03 23:43 -34.58682 -58.36613 760 ft 131 kts 307°
2026-05-03 23:43 -34.58181 -58.37531 626 ft 130 kts 307°
2026-05-03 23:43 -34.57680 -58.38448 470 ft 132 kts 307°
2026-05-03 23:44 -34.57161 -58.39373 312 ft 133 kts 307°
2026-05-03 23:44 -34.56643 -58.40292 143 ft 135 kts 306°
2026-05-03 23:44 -34.56113 -58.41244 31 ft 131 kts 306°
2026-05-03 23:44 -34.55719 -58.41951 26 ft 73 kts 306°
2026-05-03 23:45 -34.55501 -58.42331 26 ft 39 kts 302°
2026-05-03 23:45 -34.55397 -58.42503 26 ft 16 kts 336°
2026-05-03 23:45 -34.55364 -58.42430 26 ft 10 kts 105°
2026-05-03 23:45 -34.55380 -58.42398 26 ft 0 kts 122°
2026-05-03 23:46 -34.55383 -58.42388 26 ft 3 kts 107°
2026-05-03 23:46 -34.55398 -58.42339 26 ft 11 kts 115°
2026-05-03 23:46 -34.55448 -58.42252 26 ft 12 kts 128°
2026-05-03 23:46 -34.55497 -58.42176 26 ft 11 kts 127°
2026-05-03 23:47 -34.55541 -58.42106 26 ft 9 kts 126°
2026-05-03 23:47 -34.55579 -58.42041 26 ft 8 kts 125°
2026-05-03 23:47 -34.55612 -58.41981 26 ft 8 kts 123°
2026-05-03 23:47 -34.55650 -58.41911 26 ft 10 kts 122°
2026-05-03 23:48 -34.55695 -58.41828 26 ft 13 kts 123°
2026-05-03 23:48 -34.55748 -58.41727 26 ft 15 kts 119°
2026-05-03 23:48 -34.55766 -58.41608 26 ft 15 kts 46°
2026-05-03 23:48 -34.55745 -58.41591 26 ft 2 kts 24°
2026-05-03 23:49 -34.55717 -58.41564 26 ft 8 kts 28°
2026-05-03 23:49 -34.55668 -58.41551 26 ft 4 kts
2026-05-03 23:49 -34.55658 -58.41550 26 ft 0 kts